Weather Roundup
Issued by NWS

Home | Current Version | Previous Version | Graphics & Text | Print | Product List | Glossary Off
Versions: 1 2 3 4 5 6 7 8 9 10 11 12 13 14 15 16 17 18 19 20 21 22 23 24 25 26 27 28 29 30 31 32 33 34 35 36 37 38 39 40 41 42 43 44 45 46 47 48 49 50

000
NZUS93 KARX 031059
HRRWXR

CURRENT HOURLY OBSERVATIONS ACROSS
MUCH OF THE UPPER MISSISSIPPI VALLEY
NATIONAL WEATHER SERVICE LA CROSSE WI
600 AM CDT SUN MAY 03 2015


...SOUTHEAST MINNESOTA...


CITY           SKY/WX    TMP DP  RH WIND       PRES   REMARKS
ROCHESTER      CLOUDY    55  48  77 S12       29.79F
ROCHESTER/MAYO FAIR      56  50  79 SE8       29.79S
WINONA         PTCLDY    61  48  63 S6        29.80F
AUSTIN         CLOUDY    54  48  82 S5        29.78F
ALBERT LEA     CLOUDY    55  50  82 S6        29.76F
DODGE CENTER   CLOUDY    55  48  76 S9        29.79R
PRESTON        CLOUDY    55  48  79 S9G16     29.80F
OWATONNA       CLOUDY    55  48  76 SE10      29.76F
FARIBAULT      CLOUDY    55  50  82 MISG      29.78S
$$

...ELSEWHERE IN MINNESOTA...


CITY           SKY/WX    TMP DP  RH WIND       PRES   REMARKS
MINNEAPOLIS    MOCLDY    57  50  77 SE5       29.78S
INTNL FALLS    PTCLDY    43  40  89 SW3       29.66R
DULUTH         CLOUDY    61  49  64 S10       29.68F
RED WING       MOCLDY    55  48  76 E3        29.78F
REDWOOD FALLS  CLOUDY    54  50  86 E6        29.72R
MANKATO        CLOUDY    54  46  76 SE8       29.75S
WORTHINGTON    CLOUDY    50  46  87 SE7       29.74S
FAIRMONT       CLOUDY    54  46  76 S8        29.74S
$$

...SOUTHWEST WISCONSIN...


CITY           SKY/WX    TMP DP  RH WIND       PRES   REMARKS
LA CROSSE      PTCLDY    62  51  67 S14       29.81F
PRAIRIE DU CHI CLOUDY    60  46  60 E6        29.85F
BOSCOBEL       MOCLDY    61  49  64 SW3       29.86F
LONE ROCK      NOT AVBL
PLATTEVILLE    CLOUDY    60  50  69 S14       29.89F
FORT MC COY    CLEAR     55  47  74 CALM      29.85F
VIROQUA        FAIR      57  49  75 S9        29.86S
WIS DELLS      NOT AVBL
$$

...ELSEWHERE IN WISCONSIN...


CITY           SKY/WX    TMP DP  RH WIND       PRES   REMARKS
MILWAUKEE      MOCLDY    59  40  49 SW9       29.94S
MADISON        MOCLDY    59  48  67 S8        29.91S
GREEN BAY      CLEAR     56  46  69 S3        29.88S
EAU CLAIRE     NOT AVBL
BLACK RVR FLS  FAIR      45  44  99 CALM      29.82F
MEDFORD        CLEAR     55  49  80 S10       29.82F
WAUSAU         CLEAR     56  49  77 S8        29.83S
WIS RAPIDS     CLEAR     54  47  77 S7        29.86F
MARSHFIELD     CLEAR     51  47  86 S6        29.84S
RICE LAKE      CLEAR     55  47  75 S3        29.81S
$$

...NORTHEAST IOWA...


CITY           SKY/WX    TMP DP  RH WIND       PRES   REMARKS
DECORAH        CLOUDY    59  48  67 S10G17    29.82F
MASON CITY     CLOUDY    54  51  90 S9        29.78F
CHARLES CITY   CLOUDY    57  52  82 S10       29.80F
OELWEIN        CLOUDY    57  50  77 S20       29.82F
$$

...ELSEWHERE IN IOWA...


CITY           SKY/WX    TMP DP  RH WIND       PRES   REMARKS
DES MOINES     CLOUDY    61  56  83 S12       29.76F
IOWA CITY      CLOUDY    61  51  70 SE12      29.90S
FORT DODGE     CLOUDY    55  48  76 E6        29.76R
$$

...NORTHERN ILLINOIS...


CITY           SKY/WX    TMP DP  RH WIND       PRES   REMARKS
CHICAGO-OHARE  CLOUDY    60  42  51 S7        29.97R
CHICAGO-MIDWAY CLOUDY    62  43  49 S6        29.99R
MOLINE         TSTM      58  53  84 SW6       29.93R
ROCKFORD       CLOUDY    59  43  55 SE6       29.95F
PEORIA         MOCLDY    61  45  55 S8        29.97S
$$

NOTE: "FAIR" INDICATES FEW OR NO CLOUDS BELOW 12,000 FEET WITH NO
SIGNIFICANT WEATHER AND/OR OBSTRUCTIONS TO VISIBILITY. WIND
SPEEDS ARE IN MILES-PER-HOUR.



USA.gov is the U.S. government's official web portal to all federal, state and local government web resources and services.